Regional Weather Roundup
Issued by NWS

Home | Current Version | Previous Version | Text Only | Print | Product List | Glossary Off
Versions: 1 2 3 4 5 6 7 8 9 10 11 12 13 14 15 16 17 18 19 20 21 22 23 24 25 26 27 28 29 30 31 32 33 34 35 36 37 38 39 40 41 42 43 44 45 46 47 48 49 50

000
ASUS43 KFSD 221102
RWRSD

WEATHER ROUNDUP FOR SOUTH DAKOTA
NATIONAL WEATHER SERVICE SIOUX FALLS SD
600 AM CDT THU JUN 22 2017

NOTE: "FAIR" INDICATES FEW OR NO CLOUDS BELOW 12,000 FEET WITH NO
SIGNIFICANT WEATHER AND/OR OBSTRUCTIONS TO VISIBILITY.


SDZ001>005-009-010-012>017-221200-
NORTHWEST AND NORTH CENTRAL SOUTH DAKOTA

CITY           SKY/WX    TMP DP  RH WIND       PRES   REMARKS
BUFFALO          N/A     56  43  61 NE22G32   29.81R
FAITH            N/A     56  55  97 N6        29.79R
MOBRIDGE       CLOUDY    60  53  77 S6        29.74R
$$

SDZ012>016-024>037-041>051-057-063-072>074-221200-
SOUTHWEST AND SOUTH CENTRAL SOUTH DAKOTA

CITY           SKY/WX    TMP DP  RH WIND       PRES   REMARKS
RAPID CTY ARPT CLOUDY    56  49  77 N5        29.79F
PIERRE         CLOUDY    56  54  93 NE17      29.67F
CUSTER         CLOUDY    55  44  66 NE5       29.90S
ELLSWORTH AFB  CLOUDY    58  51  76 N7        29.80F
PHILIP         CLOUDY    59  50  72 NE6       29.71S
PINE RIDGE     PTCLDY    60  56  86 N7        29.73R
SPEARFISH      MOCLDY    57  54  88 CALM      29.82S
WINNER         CLOUDY    68  51  54 NE14      29.70R
$$

SDZ004>011-016>023-039-040-221200-
NORTHEAST SOUTH DAKOTA

CITY           SKY/WX    TMP DP  RH WIND       PRES   REMARKS
ABERDEEN       CLOUDY    61  55  81 CALM      29.73R
WATERTOWN      LGT RAIN  58  55  90 N6        29.73F
BROOKINGS      CLOUDY    66  57  72 NE10G20   29.69F
SISSETON         N/A     62  56  80 CALM      29.72S
$$

SDZ017-020-022-023-036>040-048>070-221200-
SOUTHEAST SOUTH DAKOTA

CITY           SKY/WX    TMP DP  RH WIND       PRES   REMARKS
SIOUX FALLS    CLOUDY    69  60  73 NE9       29.65F
HURON          TSTM      61  57  87 N9        29.72R
CHAMBERLAIN    PTCLDY    65  56  74 NE16G23   29.69R
MITCHELL       CLOUDY    70  56  61 NE18G28   29.65S
YANKTON        PTCLDY    71  68  90 N14       29.63R
$$

ABBREVIATIONS USED IN REMARKS
   TC - TEMPERATURE IN CELSIUS
  WCI - WIND CHILL INDEX
   HX - HEAT INDEX
  VSB - VISIBILITY





USA.gov is the U.S. government's official web portal to all federal, state and local government web resources and services.